Location: Falniów
(50.3639°N, 19.9642°E)
Time: 12:27:22
(UTC+00:00)

Cosmos 2082 Rocket - Pass Details

Date: 24 April 2026
Orbit: 831 x 853 km, 71.0° (Epoch: 19 May)

Event Time Altitude Azimuth Distance (km) Brightness Sun altitude
Exits shadow 02:11:51 - 281° (W) 3,170 4.8 -11.5°
Reaches altitude 10° 02:14:42 10° 301° (WNW) 2,491 4.4 -11.2°
Maximum altitude 02:17:44 14° 333° (NNW) 2,192 4.5 -10.8°
Drops below altitude 10° 02:20:47 10° 6° (N) 2,494 5.3 -10.4°
Sets 02:24:32 0° 30° (NNE) 3,430 6.7 -9.9°
